Yuma, AZ

4:52 AM MST on September 25, 2016 (GMT -0700)
Yuma Marine Corps Air Station

Weather History for KNYL - December, 2013

Change the Weather History Date:

Saturday, December 14, 2013

  Actual Average Record
Temperature  
Mean Temperature 59 °F 57 °F  
Max Temperature 69 °F 68 °F 82 °F (1952)
Min Temperature 48 °F 46 °F 24 °F (1901)
Degree Days  
Heating Degree Days 6 8  
Month to date heating degree days 123 96  
Since 1 July heating degree days 162 164  
Cooling Degree Days 0 0  
Month to date cooling degree days 0 0  
Year to date cooling degree days 4805 4649  
Growing Degree Days 10 (Base 50)    
Moisture  
Dew Point 21 °F    
Average Humidity 28    
Maximum Humidity 41    
Minimum Humidity 15    
Precipitation  
Precipitation 0.00 in 0.02 in 0.85 in (1961)
Month to date precipitation 0.00 0.21  
Year to date precipitation 3.31 3.26  
Sea Level Pressure  
Sea Level Pressure 30.27 in    
Wind  
Wind Speed 10 mph (North)    
Max Wind Speed 22 mph    
Max Gust Speed 27 mph    
Visibility 10 miles    
Events      
T = Trace of Precipitation, MM = Missing Value Source: NWS Daily Summary

Daily Weather History Graph

Daily Weather History Graph

Search for Another Location

Airport or City:

Trip Planner

Search our weather history database for the weather conditions in past years. The results will help you decide how hot, cold, wet, or windy it might be!

Date:

Astronomy

Dec. 14, 2013 Rise Set
Actual Time 7:32 AM MST 5:33 PM MST
Civil Twilight 7:05 AM MST 6:01 PM MST
Nautical Twilight 6:34 AM MST 6:31 PM MST
Astronomical Twilight 6:04 AM MST 7:01 PM MST
Moon 3:53 PM MST (12/14) 5:02 AM MST (12/14)
Length of Visible Light 10h 55m
Length of Day
10h 01m
Waxing Gibbous, 94% of the Moon is Illuminated
Dec 14
Waxing Gibbous
Dec 17
Full
Dec 25
Last Quarter
Jan 1
New
Jan 7
First Quarter

Hourly Weather History & Observations

Time (MST) Temp. Dew Point Humidity Pressure Visibility Wind Dir Wind Speed Gust Speed Precip Events Conditions
12:57 AM 51.1 °F 28.0 °F 41% 30.20 in 10.0 mi Calm Calm - N/A   Clear
1:57 AM 52.0 °F 24.1 °F 34% 30.20 in 10.0 mi NNE 6.9 mph - N/A   Clear
2:57 AM 53.1 °F 21.9 °F 30% 30.20 in 10.0 mi North 8.1 mph - N/A   Clear
3:57 AM 52.0 °F 21.0 °F 30% 30.20 in 10.0 mi North 4.6 mph - N/A   Clear
4:57 AM 50.0 °F 23.0 °F 35% 30.21 in 10.0 mi Variable 3.5 mph - N/A   Clear
5:57 AM 53.1 °F 21.0 °F 29% 30.22 in 10.0 mi North 12.7 mph - N/A   Clear
6:57 AM 54.0 °F 19.9 °F 26% 30.24 in 10.0 mi NNW 12.7 mph - N/A   Partly Cloudy
7:57 AM 53.1 °F 19.9 °F 27% 30.28 in 10.0 mi North 8.1 mph - N/A   Partly Cloudy
8:57 AM 57.0 °F 21.0 °F 25% 30.31 in 10.0 mi North 15.0 mph 23.0 mph N/A   Partly Cloudy
9:57 AM 61.0 °F 21.9 °F 22% 30.34 in 10.0 mi North 12.7 mph - N/A   Partly Cloudy
10:57 AM 63.0 °F 21.0 °F 20% 30.35 in 10.0 mi North 18.4 mph 23.0 mph N/A   Partly Cloudy
11:57 AM 64.9 °F 19.9 °F 18% 30.32 in 10.0 mi North 17.3 mph - N/A   Partly Cloudy
12:57 PM 66.9 °F 19.0 °F 16% 30.30 in 10.0 mi NNE 16.1 mph 23.0 mph N/A   Partly Cloudy
1:57 PM 68.0 °F 19.9 °F 16% 30.28 in 10.0 mi North 12.7 mph - N/A   Partly Cloudy
2:57 PM 69.1 °F 19.0 °F 15% 30.26 in 10.0 mi NNE 13.8 mph - N/A   Partly Cloudy
3:57 PM 69.1 °F 19.9 °F 15% 30.26 in 10.0 mi NNE 11.5 mph - N/A   Partly Cloudy
4:57 PM 68.0 °F 21.0 °F 17% 30.26 in 10.0 mi North 9.2 mph - N/A   Partly Cloudy
5:57 PM 63.0 °F 21.9 °F 21% 30.27 in 10.0 mi NNW 5.8 mph - N/A   Partly Cloudy
6:57 PM 61.0 °F 21.0 °F 21% 30.27 in 10.0 mi NNW 6.9 mph - N/A   Partly Cloudy
7:57 PM 59.0 °F 21.0 °F 23% 30.29 in 10.0 mi NNW 6.9 mph - N/A   Clear
8:57 PM 60.1 °F 19.9 °F 21% 30.29 in 10.0 mi North 10.4 mph - N/A   Clear
9:57 PM 57.9 °F 21.0 °F 24% 30.29 in 10.0 mi North 9.2 mph - N/A   Clear
10:57 PM 57.9 °F 19.9 °F 23% 30.30 in 10.0 mi NNW 9.2 mph - N/A   Clear
11:57 PM 59.0 °F 19.0 °F 21% 30.30 in 10.0 mi North 12.7 mph - N/A   Clear